Location: Cahas Mountain Overlook
(37.0833°N, 80.1000°W)
Time: 00:41:10
(UTC-05:00)

FO-29 - Pass Details

Date: 03 May 2024
Orbit: 800 x 1321 km, 98.6° (Epoch: 06 November)

Event Time Altitude Azimuth Distance (km) Brightness Sun altitude
Rises 04:02:29 0° 5° (N) 4,309 13.6 -24.3°
Reaches altitude 10° 04:05:22 10° 359° (N) 3,351 12.8 -23.9°
Maximum altitude 04:12:33 41° 293° (WNW) 1,824 10.7 -22.9°
Enters shadow 04:14:59 33° 256° (WSW) 2,044 10.7 -22.5°
